OpenBCM V1.13 (Linux)

Packet Radio Mailbox

DB0FHN

[JN59NK Nuernberg]

 Login: GUEST





  
I0OJJ  > KEPS     19.11.24 09:33l 370 Lines 17641 Bytes #999 (0) @ AMSAT
BID : ORB24324.1
Read: GUEST DJ6UX
Subj: 2Line Orbital Elements 24324.AMSAT
Path: DB0FHN<DB0FFL<OE5XBL<OE6XPE<DB0ERF<IZ3LSV<I0OJJ
Sent: 241119/0720z @:I0OJJ.ITA.EU [Rome] obcm1.08-6-g5b69
From: I0OJJ @ I0OJJ.ITA.EU (Gustavo)
To:   KEPS @ AMSAT
X-Info: This message was generated automatically


QST de W1STR

AMSAT Orbital Elements for Amateur Satellites in TLE Format
From Orbital Analysis Office
New England Sci-Tech STEM Education Center
Natick, MA November 19, 2024
To all radio amateurs


These element sets describe the orbits of various satellites 
in use by the amateur radio community. For details see:
www.amsat.org/keplerian-elements-formats/

A daily update of element sets is available at:
www.amsat.org/tle/daily-bulletin.txt
or without bulletin text:
www.amsat.org/tle/dailytle.txt


AO-07
1 07530U 74089B   24323.74306332 -.00000038  00000-0  54556-4 0  9996
2 07530 101.9893 319.8986 0012268 148.1774  25.1616 12.53682688288641
UO-11
1 14781U 84021B   24323.76104992  .00002292  00000-0  25516-3 0  9995
2 14781  97.7274 288.6899 0006287 293.3131  66.7424 14.88047753192462
AO-27
1 22825U 93061C   24323.40976110  .00000236  00000-0  10759-3 0  9996
2 22825  98.7687  17.6487 0008221 355.5185   4.5923 14.30657791624664
FO-29
1 24278U 96046B   24323.72410831  .00000033  00000-0  66898-4 0  9995
2 24278  98.5861 238.1401 0350581 147.8649 214.4394 13.53222045395586
NOAA-15
1 25338U 98030A   24323.80782432  .00000295  00000-0  13963-3 0  9990
2 25338  98.5558 347.6335 0009426 228.6894 131.3476 14.26798859379489
GO-32
1 25397U 98043D   24323.31441409  .00000186  00000-0  10086-3 0  9993
2 25397  98.9448 292.5111 0002394  79.9332 280.2116 14.24191354369352
ISS
1 25544U 98067A   24323.89903138  .00018368  00000-0  32942-3 0  9994
2 25544  51.6414 268.8935 0007271 233.5412 226.1760 15.49948395482545
NO-44
1 26931U 01043C   24323.55953335  .00000444  00000-0  19814-3 0  9999
2 26931  67.0504 292.6655 0007253 262.1624  97.8655 14.31501303208045
SO-50
1 27607U 02058C   24323.77976089  .00002372  00000-0  32630-3 0  9995
2 27607  64.5538 105.9376 0031864  32.7125 327.5944 14.80316694179405
CO-55
1 27844U 03031E   24323.45240006  .00000620  00000-0  29081-3 0  9998
2 27844  98.6785 328.3854 0010721  60.5596 299.6651 14.23645034109735
CO-57
1 27848U 03031J   24323.44974552  .00000524  00000-0  25197-3 0  9998
2 27848  98.6815 328.5339 0010729  75.4399 284.7968 14.23031838109475
RS-22
1 27939U 03042A   24323.82332120  .00002139  00000-0  35528-3 0  9995
2 27939  98.3072 122.7816 0010723 294.1186 198.3028 14.71193956131004
NOAA-18
1 28654U 05018A   24323.75366592  .00000329  00000-0  19861-3 0  9998
2 28654  98.8631  39.3588 0013831 349.0086  11.0782 14.13423753  5090
CO-58
1 28895U 05043F   24323.64722835  .00003129  00000-0  53709-3 0  9997
2 28895  98.2232 100.0617 0014481 227.0967 132.9023 14.69369309 17352
CO-65
1 32785U 08021C   24323.55539737  .00006575  00000-0  52786-3 0  9998
2 32785  97.7725 288.1128 0011259 172.9046 187.2339 15.00353913898593
AAUSAT2
1 32788U 08021F   24323.43579902  .00045048  00000-0  13965-2 0  9999
2 32788  97.6049 305.6872 0005883  45.3110 314.8610 15.33268362901815
CO-66
1 32791U 08021J   24323.36147402  .00012911  00000-0  79344-3 0  9998
2 32791  97.7086 294.4303 0006650 122.3423 237.8451 15.10183763899810
RS-30
1 32953U 08025A   24323.83526520  .00000029  00000-0  13759-3 0  9991
2 32953  82.5046 353.2985 0020535 126.2459 234.0523 12.43153364748345
PRISM
1 33493U 09002B   24323.41417937  .00049394  00000-0  13885-2 0  9999
2 33493  98.1803  25.7912 0008163  73.9727 286.2414 15.36320257862560
NOAA-19
1 33591U 09005A   24323.79842325  .00000330  00000-0  20055-3 0  9990
2 33591  99.0279  21.0971 0013338 212.8621 147.1722 14.13202663813463
SRMSAT
1 37841U 11058D   24323.63504811  .00000578  00000-0  17093-3 0  9993
2 37841  19.9728 302.5283 0011683 353.7526 161.8223 14.11286507676405
RS-40
1 38735U 12041C   24323.60484780  .00000027  00000-0  12498-3 0  9991
2 38735  82.4764  73.5952 0016858 240.2361 119.7042 12.42620492558358
ZACUBE-1
1 39417U 13066B   24323.83667441  .00008425  00000-0  80266-3 0  9997
2 39417  97.7558 276.8194 0048284  10.9504 349.2754 14.92737651594624
Delfi-N3xt
1 39428U 13066N   24323.73615880  .00011190  00000-0  12825-2 0  9996
2 39428  97.8359 238.3915 0091722 307.4194  51.8697 14.83047208589138
GOMX-1
1 39430U 13066Q   24323.75783867  .00002829  00000-0  45730-3 0  9993
2 39430  97.7059 188.7470 0137312 120.2829 241.2046 14.65925688585678
LO-74
1 39440U 13066AA  24323.57996943  .00005377  00000-0  58968-3 0  9993
2 39440  97.8289 264.3126 0067740 127.1632 233.5796 14.86453402591248
AO-73
1 39444U 13066AE  24323.45187841  .00009957  00000-0  85821-3 0  9999
2 39444  97.7412 280.0655 0044246 350.8121   9.2286 14.96750332593141
DTUSAT-2
1 40030U 14033W   24323.81377621  .00009745  00000-0  72911-3 0  9995
2 40030  98.0331 280.9664 0012157  37.4983 322.7087 15.02914470566399
EO-80
1 40032U 14033Y   24323.31204080  .00009883  00000-0  73905-3 0  9997
2 40032  98.0186 280.3706 0008934 338.2944  21.7900 15.02956197565781
XW-2C
1 40906U 15049H   24323.78569369  .00087319  00000-0  91198-3 0  9994
2 40906  97.4599 346.4547 0007433  97.0730 263.1375 15.64176081508436
LILACSAT-2
1 40908U 15049K   24323.80373449  .00012355  00000-0  40463-3 0  9998
2 40908  97.5202 334.1548 0011662 154.5791 205.6026 15.31744920507115
XW-2B
1 40911U 15049N   24323.79444323  .01673194  24505-2  13496-2 0  9998
2 40911  97.4388 352.3706 0002345 197.7334 162.3871 16.14967735508752
IO-86
1 40931U 15052B   24322.18265442  .00001592  00000-0  12634-3 0  9991
2 40931   6.0008 339.1587 0012218  92.8814 267.2712 14.78351066494134
ChubuSat-2
1 41338U 16012B   24323.78527244  .00007691  00000-0  43392-3 0  9999
2 41338  30.9989 113.4965 0010680 354.2256   5.8259 15.11742233480987
ChubuSat-3
1 41339U 16012C   24323.80460531  .00006891  00000-0  39892-3 0  9999
2 41339  31.0057 113.0655 0010779 356.5099   3.5463 15.10775651480955
Horyu-4
1 41340U 16012D   24323.54931874  .00019260  00000-0  75939-3 0  9991
2 41340  31.0024  44.4371 0009912 113.3514 246.8171 15.24330418481650
Lapan A3
1 41603U 16040E   24323.77822828  .00004480  00000-0  16962-3 0  9996
2 41603  97.1395 330.6849 0009559 273.5384  86.4762 15.27372721466807
Pratham
1 41783U 16059A   24323.46588424  .00001370  00000-0  25877-3 0  9992
2 41783  97.8306 335.5887 0030661 250.1492 109.6406 14.65660265435139
CAS-2T
1 41847U 16066G   24323.44606613  .00001575  00000-0  23341-3 0  9991
2 41847  98.4455  33.5814 0351080  72.4804 291.4425 14.42413349421725
CAS-4B
1 42759U 17034B   24323.75554391  .00032888  00000-0  82919-3 0  9996
2 42759  43.0153  67.0022 0014561 319.0554  40.9208 15.39171923411129
CAS-4A
1 42761U 17034D   24323.74076125  .00032460  00000-0  81090-3 0  9997
2 42761  43.0191  65.2750 0015012 327.7809  32.2129 15.39451467411134
D-SAT
1 42794U 17036AF  24323.36782863  .00011743  00000-0  73899-3 0  9995
2 42794  97.4936 300.0517 0102150 344.8197  14.9970 15.05041483403870
TechnoSat
1 42829U 17042E   24323.72032595  .00004472  00000-0  37270-3 0  9995
2 42829  97.3896 136.4366 0010345 276.7925  83.2121 14.99051712400302
AO-91
1 43017U 17073E   24323.53223742  .00010986  00000-0  61302-3 0  9994
2 43017  97.5497 193.8403 0196608 135.0321 226.7015 14.98670681378732
S-Net D
1 43186U 18014G   24323.46505617  .00006894  00000-0  45204-3 0  9999
2 43186  97.5764 222.7674 0008942 189.4751 170.6309 15.07967323371729
S-Net B
1 43187U 18014H   24323.46827785  .00007081  00000-0  46428-3 0  9991
2 43187  97.5770 222.7310 0009886 185.8998 174.2115 15.07954122371723
S-Net A
1 43188U 18014J   24323.46601338  .00006863  00000-0  44995-3 0  9990
2 43188  97.5777 222.8551 0009722 186.2333 173.8776 15.07970308371728
S-Net C
1 43189U 18014K   24323.47029436  .00007115  00000-0  46632-3 0  9996
2 43189  97.5790 222.8375 0011635 180.6072 179.5144 15.07952691370278
Ten-Koh
1 43677U 18084G   24323.41192735  .00004236  00000-0  36108-3 0  9990
2 43677  98.0817 121.8949 0012044 222.4927 137.5363 14.98274767329798
PO-101
1 43678U 18084H   24323.79344348  .00002825  00000-0  25318-3 0  9994
2 43678  98.0859 126.6301 0007986 234.9316 125.1156 14.96636228330033
QO-100
1 43700U 18090A   24323.79949022  .00000147  00000-0  00000+0 0  9999
2 43700   0.0150 332.3535 0002271 305.3283  94.2575  1.00272013 22150
MinXSS-2
1 43758U 18099A   24323.17457381  .00014667  00000-0  76533-3 0  9995
2 43758  97.5342  23.6528 0015019 144.5238 215.6996 15.15942692326056
AO-95
1 43770U 18099N   24323.11991426  .00011025  00000-0  66452-3 0  9990
2 43770  97.5242  17.9846 0012053 191.3162 168.7799 15.10881701325763
RANGE-B
1 43772U 18099Q   24323.45576231  .00018500  00000-0  90880-3 0  9999
2 43772  97.5039  22.6122 0005167  94.5150 265.6674 15.18098195326055
RANGE-A
1 43773U 18099R   24323.55076238  .00006686  00000-0  46738-3 0  9998
2 43773  97.4811  11.9442 0012593 162.0347 198.1328 15.05561785325634
MOVE-II
1 43780U 18099Y   24323.43759721  .00035896  00000-0  12234-2 0  9996
2 43780  97.4993  26.1362 0005085 153.2619 206.8884 15.30275299326381
SNUSat 2
1 43782U 18099AA  24323.38404909  .00008633  00000-0  54457-3 0  9990
2 43782  97.4924  16.4947 0014307 131.9188 228.3264 15.09261888325799
SnugLite
1 43784U 18099AC  24323.38844057  .00009447  00000-0  56664-3 0  9990
2 43784  97.4736  15.8038 0004834 130.5409 229.6243 15.11149828325884
ITASat 1
1 43786U 18099AE  24323.40934200  .00007613  00000-0  49372-3 0  9996
2 43786  97.4897  16.5245 0015843 180.4672 179.6544 15.08268175325780
EAGLET 1
1 43790U 18099AJ  24323.71331778  .00006246  00000-0  43406-3 0  9999
2 43790  97.5079  17.2449 0013257 160.1482 200.0263 15.05802701325506
ESEO
1 43792U 18099AL  24323.73636328  .00002762  00000-0  21985-3 0  9999
2 43792  97.4877  12.9711 0009375 119.7238 240.4921 15.01143151325379
